Location: Dead Woman Crossing
(43.5369°N, 106.3228°W)
Time: 16:16:39
(UTC+00:00)

QB50P2 - Pass Details

Date: 26 June 2022
Orbit: 590 x 605 km, 97.9° (Epoch: 18 August)

Event Time Altitude Azimuth Distance (km) Brightness Sun altitude
Rises 08:51:31 0° 8° (N) 2,855 ? -19.0°
Reaches altitude 10° 08:53:43 10° 4° (N) 1,951 ? -18.9°
Maximum altitude 08:57:51 55° 287° (WNW) 728 ? -18.5°
Enters shadow 08:59:09 38° 232° (SW) 921 ? -18.4°
